STARLINK-32871, 62924

Orbit data source: Space-Track

STARLINK-32871, 62924 is a payload satellite owned by SpaceX/Seattle (US) in LEO that was launched on Sat, 08 Feb 2025 UTC via an FALCON 9 launch vehicle from the Air Force Eastern Test Range (AFETR). Payload-class satellites include a variety of spacecraft equipped with specific instruments for various scientific and technological missions. These include communications satellites like Starlink; space stations such as the ISS; scientific satellites like the Hubble; Earth observation satellites from companies like Planet Labs, Umbra, and HawkEye 360; GPS; miniature CubeSats for education and research; and military/defense satellites.

Loading next visibility...
Identifier
62924, 2025-027T
Orbit
LEO
Last TLE update
3 hours ago
Origin
Manufacturer
SpaceX/Seattle
Mission
Operational Commercial Communications
Bus & Motor
STARLINK V2M, Unknown motor
Mass
730 kg wet, ~700 kg dry
Launch date (UTC)
2025-02-08 (5 months ago)
Launch vehicle
FALCON 9
Launch site
Air Force Eastern Test Range (AFETR)
Object type
Payload
Rocket body
Debris
Shape & HBR
Box + 2 Pan, 29 m
Radar Cross Section
33.884 m², Large (>1 m²)

Expand to show TLE details & history

TLE from 3 hours ago
0 STARLINK-32871
1 62924U 25027T   25182.15703310  .00038323  00000-0  13955-2 0  9991
2 62924  42.9968 109.3817 0000878 273.8720  86.2031 15.27566229 23071
Epoch: 2025-07-01T03:46Z
TLE epoch observation values (Epoch: 2025-07-01T03:46:07.659Z)
Latitude
-0.00005°
Longitude
133.39322°
Altitude
482.826 km
Speed
7.626 km/s
True Right ascension
07h 17m 31s
True Declination
0° 00' 00"
Sunlit
Object was in daylight at epoch
Visualization orbit readout
Latitude
32.92172°
Longitude
176.27529°
Altitude
484.577 km
Speed
7.628 km/s
Apparent Right ascension
08h 36m 24s
Apparent Declination
-2° 08' 34"
Sunlit
Object is in daylight
Visualization observer readout
Local Sidereal Time
18:46:04
Azimuth
319.393° NNW
Elevation
-44.696°
Doppler factor
1
Orbital elements
Apogee altitude
485.639 km
Perigee altitude
484.433 km
Semi-major axis
6,863.173 km
Eccentricity
0.00009
Inclination
42.9968°
RAAN
109.3817°
Arg. of periapsis
273.872°
True anomaly
Unknown
Mean anomaly
86.2031°
Eccentric anomaly
Unknown
Mean motion
3.8173 °/min
Orbital period
94.31 mins
BSTAR
0.0013955
Loading maneuver chart data...
Loading SW <> Apogee altitude chart data...
Loading historical data...
Loading historical data...
Loading historical data...
Loading historical data...
Loading historical data...
Loading historical data...
Loading historical data...

STARLINK-32871 Visibility forecast

Observer location: undefined°, undefined°

Span
Click to sort rows by Start time (UTC) header in descending order
Start Az.
Max El. time (UTC)
Max El. Az.
Max El.
End time (UTC)
End Az.
5 mins2025-07-01 22:50:10.398Z225.409° WSW2025-07-01 22:52:10.398Z170.045° S38.9°2025-07-01 22:55:10.398Z80.304° E
5 mins2025-07-02 00:29:10.398Z279.09° WNW2025-07-02 00:31:10.398Z336.899° NNW39.783°2025-07-02 00:34:10.398Z68.428° E
6 mins2025-07-02 02:08:10.398Z293.975° NW2025-07-02 02:10:10.398Z337.054° NNW39.528°2025-07-02 02:14:10.398Z90.745° ESE
5 mins2025-07-02 03:47:10.398Z274.031° WNW2025-07-02 03:49:10.398Z225.738° WSW35.837°2025-07-02 03:52:10.398Z136.933° SSE
|